VU3OPZ-13 Weather Reports


Display with metric or nautical units.
time (UTC)temp
F
wind
direction
speed
MPH
gust
MPH
rain 1hr
in
rain 24hr
in
rain mn
in
humidity
%
barometer
mb
20260508220411 82 339 3.0 0.0 0.00 0.00 0.00 53 1007.0
20260508203405 83 289 0.0 0.0 0.00 0.00 0.00 52 1007.0
20260508200400 84 216 4.0 0.0 0.00 0.00 0.00 48 1008.0
20260508193356 84 216 4.0 0.0 0.00 0.00 0.00 48 1008.0
20260508184548 85 218 8.0 0.0 0.00 0.00 0.00 47 1008.0
20260508181544 86 180 7.0 0.0 0.00 0.00 0.00 40 1009.0
20260508174539 86 180 7.0 0.0 0.00 0.00 0.00 40 1009.0
20260508171535 88 129 9.0 0.0 0.00 0.00 0.00 40 1009.0
20260508161530 89 50 2.0 0.0 0.00 0.00 0.00 40 1009.0
20260508154525 89 50 2.0 0.0 0.00 0.00 0.00 40 1009.0
20260508151521 90 298 9.0 0.0 0.00 0.00 0.00 40 1008.0
20260508144516 90 298 9.0 0.0 0.00 0.00 0.00 40 1008.0
20260508141512 90 228 6.0 0.0 0.00 0.00 0.00 37 1007.0
20260508134506 90 228 6.0 0.0 0.00 0.00 0.00 37 1007.0
20260508131501 91 195 12.0 0.0 0.00 0.00 0.00 35 1006.0
20260508124457 91 195 12.0 0.0 0.00 0.00 0.00 33 1006.0
20260508115931 97 194 11.0 0.0 0.00 0.00 0.00 24 1005.0
20260508105926 98 100 6.0 0.0 0.00 0.00 0.00 22 1004.0
20260508102922 98 96 6.0 0.0 0.00 0.00 0.00 21 1005.0
20260508095917 98 96 6.0 0.0 0.00 0.00 0.00 21 1005.0
20260508092913 99 77 8.0 0.0 0.00 0.00 0.00 21 1005.0
20260508085909 99 77 8.0 0.0 0.00 0.00 0.00 21 1005.0
20260508082904 100 79 8.0 0.0 0.00 0.00 0.00 21 1006.0
20260508075900 100 79 8.0 0.0 0.00 0.00 0.00 21 1006.0
20260508072855 98 84 8.0 0.0 0.00 0.00 0.00 24 1007.0
20260508065851 98 84 8.0 0.0 0.00 0.00 0.00 24 1007.0
20260508044005 95 69 8.0 0.0 0.00 0.00 0.00 25 1009.0
20260508040958 92 46 8.0 0.0 0.00 0.00 0.00 29 1010.0
20260508033954 92 46 8.0 0.0 0.00 0.00 0.00 29 1010.0
20260508030950 87 16 5.0 0.0 0.00 0.00 0.00 38 1010.0
20260508021122 84 328 5.0 0.0 0.00 0.00 0.00 47 1009.0
20260508014116 84 328 5.0 0.0 0.00 0.00 0.00 47 1009.0
20260508011112 81 324 5.0 0.0 0.00 0.00 0.00 55 1008.0
20260508004108 81 324 5.0 0.0 0.00 0.00 0.00 57 1008.0
20260508001103 81 331 6.0 0.0 0.00 0.00 0.00 58 1008.0
20260507234059 81 290 1.0 0.0 0.00 0.00 0.00 58 1008.0
20260507231055 82 326 3.0 0.0 0.00 0.00 0.00 58 1007.0
20260507224050 82 326 3.0 0.0 0.00 0.00 0.00 58 1007.0
20260507221045 82 314 6.0 0.0 0.00 0.00 0.00 58 1007.0